Theta_e
337 343 347 347 349 351 352 352 351 351 350 350 349 349 348 348 348 348 347 347 347 348 348 348 348 348 348 349 348 348 348 348 348 347 347 347 348 348 348 348 347 349 348 348 348 348 348 349 350 349 349 349 348 349 349 348 346 345 342 340 339 339 339 338 339 341 343 343 345 347 350 352 352 351 351 349 349 351 349 348 350 344 344 348 349
335 343 349 349 348 351 352 351 351 351 350 350 349 349 349 348 348 348 347 348 348 348 348 348 348 348 348 349 349 348 348 348 348 347 347 347 347 348 347 347 347 347 348 347 347 347 348 349 349 349 349 349 348 348 346 346 344 342 340 337 336 337 337 337 338 339 340 340 341 343 345 350 351 351 350 348 349 350 349 348 348 344 342 348 348
339 345 349 349 347 351 352 351 351 351 350 350 350 349 349 349 349 348 348 348 348 348 348 348 348 348 348 348 348 348 348 348 347 347 347 347 347 347 347 347 347 347 347 347 347 348 348 348 348 348 347 346 345 344 344 343 341 340 338 335 333 334 335 335 337 337 336 337 339 341 344 347 350 350 350 347 348 349 348 348 347 345 346 348 348
339 345 348 348 345 348 352 351 351 351 350 350 349 349 349 349 349 348 348 348 348 347 348 348 348 348 347 348 347 348 348 347 346 346 347 346 347 347 347 347 347 347 347 348 347 347 347 347 346 346 344 343 343 343 342 340 339 337 336 333 331 332 333 333 334 334 334 334 336 341 346 349 348 349 349 349 347 348 348 347 347 345 348 349 349
338 345 347 348 350 348 350 351 351 351 350 350 350 350 349 349 349 348 348 348 349 348 348 348 348 348 348 348 347 347 347 347 346 346 346 346 346 347 347 347 347 347 346 346 347 346 346 345 344 343 343 342 341 340 338 337 336 335 334 332 330 330 331 332 332 333 332 332 335 339 346 348 349 348 348 348 348 349 348 346 345 346 347 348 348
340 345 345 347 348 349 347 351 351 351 351 350 350 349 349 349 349 348 348 348 349 348 348 348 348 348 348 348 348 347 347 347 346 346 347 346 346 346 346 346 346 346 346 345 345 345 344 343 343 341 342 340 338 337 336 335 334 333 331 329 330 329 330 332 331 330 328 329 333 340 344 347 347 348 347 348 348 347 348 346 345 345 346 347 347
341 345 345 345 346 347 345 350 351 351 350 350 350 349 349 349 349 349 348 348 349 349 348 348 348 348 348 348 347 347 347 347 345 345 345 344 344 344 345 345 345 345 345 345 344 344 342 342 340 340 339 337 336 335 334 333 332 331 329 328 327 328 328 330 329 328 327 333 335 338 340 344 346 348 347 347 348 347 345 345 345 346 346 346 346
342 344 346 345 345 345 344 349 351 351 351 350 349 350 349 349 349 349 349 349 349 349 348 348 348 348 348 347 348 347 346 346 344 344 343 343 343 343 344 345 345 345 344 344 343 342 341 339 338 338 337 336 334 333 332 331 330 329 328 327 326 326 327 327 326 325 326 331 335 336 339 342 345 347 347 347 346 346 346 345 345 345 346 346 345
340 342 343 344 345 343 343 347 350 350 349 349 349 349 349 349 349 348 349 349 349 349 348 348 347 347 347 347 347 346 346 344 343 342 341 340 341 342 343 343 343 343 343 342 341 341 338 337 336 336 335 334 333 331 330 329 328 327 325 325 325 324 324 324 323 323 326 330 333 336 339 340 343 344 345 347 346 346 346 345 345 345 345 346 346
338 340 342 343 344 341 344 346 349 349 349 348 349 349 348 348 348 348 348 349 349 348 348 347 347 347 346 346 346 346 345 343 341 340 339 339 339 340 341 340 340 341 340 339 339 338 337 336 335 334 334 333 330 329 328 326 325 324 324 323 323 322 321 320 319 322 325 329 332 336 336 334 342 343 343 346 346 346 344 341 345 346 346 345 343
338 339 340 342 344 340 345 347 348 348 348 348 348 348 348 348 348 348 348 349 349 348 347 347 347 346 346 346 346 345 343 342 341 339 338 337 336 336 337 338 338 337 337 337 337 336 335 335 333 333 332 330 328 327 326 324 323 323 322 322 321 320 319 318 318 321 326 328 331 333 335 334 341 341 342 343 344 344 344 344 344 346 345 344 342
337 338 339 340 339 338 344 346 347 347 348 348 348 347 347 347 347 348 348 348 349 348 347 347 347 346 346 346 346 344 343 342 340 338 336 335 336 336 337 336 336 336 336 335 334 333 334 333 333 332 330 329 327 326 325 323 322 321 321 321 320 318 317 316 320 321 325 327 330 332 336 337 338 338 339 341 341 341 343 344 345 344 344 344 343
336 337 339 342 345 337 341 345 346 347 348 348 347 347 347 347 347 347 347 347 347 348 347 347 346 346 345 345 343 343 342 340 338 336 334 334 335 335 336 335 334 335 334 334 333 332 332 332 331 330 328 327 326 325 324 322 321 319 319 319 318 316 315 315 318 321 324 327 329 332 334 338 338 337 338 339 339 339 341 342 342 343 344 344 344
336 337 338 341 342 337 336 341 344 346 347 347 347 347 347 347 347 347 347 347 347 347 347 346 346 345 344 343 343 342 341 339 337 334 333 333 333 334 334 334 333 334 332 331 331 331 331 331 330 329 327 326 325 325 323 322 320 319 318 316 315 315 312 314 317 321 323 325 327 330 332 334 336 334 335 336 338 338 339 339 340 341 341 341 340
335 337 338 340 341 344 332 336 339 342 344 345 346 346 347 347 347 347 347 347 347 347 346 345 345 344 343 342 340 339 338 337 336 333 332 333 332 333 332 332 331 331 331 330 331 331 330 330 329 328 327 325 324 323 322 321 320 318 316 315 314 313 312 314 318 319 321 323 325 328 332 333 332 333 333 334 335 335 336 336 337 337 338 338 338
337 337 338 339 340 342 343 334 332 334 340 342 343 344 345 346 346 347 347 347 346 346 345 346 345 343 343 340 340 339 338 337 335 332 332 330 330 330 330 331 330 330 330 330 330 330 330 329 328 326 325 324 323 322 320 319 318 317 315 314 312 311 310 313 316 318 319 321 324 327 329 331 330 331 332 332 332 333 334 334 335 335 335 335 335
335 336 337 338 340 339 341 342 339 329 331 335 338 339 341 342 343 344 344 344 344 344 344 343 343 342 342 341 340 339 338 337 333 332 331 330 330 329 329 330 330 331 329 330 330 330 329 328 326 325 324 323 322 321 319 318 317 315 314 312 310 309 309 312 315 317 318 320 323 325 327 330 329 330 330 331 331 331 332 332 333 333 333 334 334
334 335 335 336 338 338 339 341 342 341 343 334 331 335 337 339 340 340 341 341 341 342 342 342 342 341 339 338 337 336 335 336 334 331 330 330 329 329 329 330 330 330 330 330 329 329 327 326 326 324 323 322 321 319 318 316 315 313 311 310 308 307 307 309 312 315 317 318 321 324 326 325 327 329 329 329 329 329 330 331 331 331 332 333 333
332 333 334 335 336 337 337 339 340 340 340 340 341 340 330 334 336 337 338 338 339 339 340 338 337 337 335 333 329 329 330 330 332 331 330 330 329 330 329 330 330 330 330 329 329 328 326 326 325 324 323 321 320 319 317 315 313 311 309 307 306 305 305 310 310 313 315 317 320 322 323 323 326 327 328 327 327 327 329 328 329 329 330 331 331
329 331 332 333 335 335 336 337 338 339 339 339 338 339 332 327 331 333 334 335 336 336 336 333 331 329 329 326 324 327 325 327 322 327 328 329 327 326 328 329 329 329 329 328 327 327 326 325 324 323 322 320 318 316 314 313 311 310 308 306 304 305 306 305 308 310 312 313 318 321 320 322 325 326 326 326 326 326 326 327 328 328 329 330 329
325 327 330 331 332 332 334 335 337 337 338 338 337 338 338 327 328 328 329 331 332 332 333 327 324 323 324 321 321 330 330 330 329 328 323 329 322 320 327 328 328 328 327 327 326 326 326 325 324 322 321 318 316 314 312 311 310 309 306 304 303 305 306 306 307 307 310 312 317 319 319 321 324 326 326 325 325 325 324 326 326 327 328 328 328
325 325 327 329 329 331 332 333 335 336 337 337 337 338 339 332 337 338 338 335 329 327 333 336 326 335 322 327 331 330 330 330 328 323 327 326 324 318 323 328 327 327 326 325 325 325 324 323 322 320 317 314 311 311 308 306 306 305 303 303 305 304 305 305 306 305 309 311 315 316 318 320 323 325 325 324 324 324 324 325 326 326 327 326 326
324 326 326 326 328 329 330 331 333 335 335 336 337 337 337 336 337 337 337 331 334 335 337 335 334 334 332 331 329 330 330 328 328 325 325 321 323 317 321 326 326 325 324 323 323 323 321 320 317 315 311 307 308 307 307 306 303 300 303 305 304 304 305 306 305 305 306 309 314 312 317 319 321 323 324 324 323 324 324 324 324 325 325 325 325
324 326 327 327 326 327 328 329 331 333 333 333 334 335 335 335 335 335 335 335 336 336 336 335 334 334 332 331 329 329 328 328 317 315 318 325 323 317 319 321 322 321 320 321 321 320 318 316 312 308 305 308 306 304 304 304 304 304 304 303 303 304 305 304 304 304 304 307 312 311 315 318 320 322 324 323 323 322 323 324 324 324 325 324 324
324 326 327 325 325 325 326 327 329 331 332 332 331 331 333 333 333 333 333 333 334 334 334 334 334 333 331 329 329 327 327 326 324 324 324 324 323 324 324 323 323 322 317 321 320 318 315 312 306 304 305 305 304 304 304 303 303 303 303 302 302 304 303 303 303 302 304 306 309 309 313 317 319 321 323 323 323 322 322 323 323 324 324 324 324
323 322 324 325 324 325 326 326 327 329 330 331 330 332 330 331 331 331 331 332 332 333 332 332 331 330 329 327 325 325 325 324 323 323 323 322 322 322 322 322 321 320 318 318 316 314 310 307 305 304 304 304 304 305 304 302 303 302 301 303 302 302 303 302 302 302 303 305 308 307 311 315 318 320 322 322 323 323 323 323 323 323 323 323 323
319 319 322 324 325 324 325 326 325 327 328 330 331 330 330 331 331 331 331 330 330 331 329 329 328 328 327 324 324 324 323 322 321 321 320 320 320 320 320 319 319 317 316 314 311 309 305 304 303 304 303 303 303 303 303 303 303 303 302 302 302 302 302 302 302 302 303 304 306 305 309 312 316 320 321 322 322 322 323 323 323 323 323 323 322
318 318 320 321 323 323 323 324 324 325 326 328 328 328 329 330 330 329 329 329 329 329 328 327 327 324 324 323 323 323 322 320 319 319 318 318 318 318 318 317 316 314 312 311 308 305 303 304 304 304 303 303 303 302 301 301 302 303 302 302 302 301 302 301 301 302 303 303 306 305 308 312 315 318 319 321 322 322 322 322 322 322 322 322 322
315 317 319 320 322 322 322 322 323 323 325 326 326 327 328 328 328 328 328 325 327 328 328 326 324 323 322 321 322 321 321 319 318 317 317 316 316 315 314 314 313 311 309 307 305 303 302 302 303 302 302 301 301 301 301 301 301 301 301 301 302 301 302 302 302 302 302 302 305 305 306 311 314 316 318 319 320 321 322 322 322 322 322 322 322
313 315 318 319 320 321 321 321 322 323 324 324 325 325 326 326 327 327 327 326 326 327 327 324 323 321 319 319 319 321 320 318 316 316 314 314 313 313 312 312 310 309 307 305 303 302 302 302 303 303 302 301 301 300 300 300 300 300 300 301 301 301 301 301 302 301 302 302 303 305 303 308 313 316 317 318 319 319 319 320 320 321 321 321 321
313 313 315 317 319 319 320 320 321 322 323 322 323 324 324 325 325 326 326 325 326 326 324 324 322 320 319 317 317 318 318 317 315 314 312 312 311 310 310 309 308 306 305 303 302 303 302 302 302 301 300 300 300 299 299 299 299 299 300 301 301 301 301 301 301 301 301 302 302 304 306 305 309 314 315 316 318 318 319 319 319 320 320 320 320
312 312 314 316 317 318 319 319 320 321 321 321 322 322 323 323 324 324 324 325 325 323 323 322 319 319 317 315 316 315 315 315 314 312 311 310 309 308 308 307 307 305 303 303 301 302 302 303 303 302 302 301 299 298 300 298 299 299 300 300 301 300 300 300 300 300 301 302 302 303 305 307 306 307 312 314 315 315 318 318 318 318 318 319 319
313 313 314 315 315 316 317 318 319 320 319 320 321 321 322 322 322 323 323 323 322 323 322 320 319 318 316 315 314 314 313 313 312 311 309 309 308 306 305 305 305 303 302 302 302 302 301 300 300 300 299 300 299 298 299 299 298 298 299 299 300 300 300 300 300 300 300 301 301 301 303 306 308 305 305 308 311 313 316 317 316 316 317 317 318
312 313 313 313 313 315 316 318 318 318 319 320 320 320 321 321 321 322 322 321 321 320 320 320 318 317 315 314 313 312 310 311 310 309 308 307 306 305 304 303 303 302 301 301 299 299 299 299 299 298 298 297 298 297 296 297 297 298 298 299 300 299 299 299 299 299 300 300 300 301 301 302 303 305 305 302 304 308 313 314 315 316 316 317 316
310 311 312 312 312 313 315 315 316 318 318 318 318 319 320 320 319 320 320 319 320 319 319 318 317 315 314 313 312 310 309 309 309 308 306 305 304 303 302 302 302 301 300 299 299 299 300 300 298 297 297 297 298 297 298 298 297 298 298 298 298 298 299 298 299 299 299 300 300 300 300 300 299 301 301 301 301 302 306 310 312 313 314 314 316
309 310 311 312 311 311 313 313 315 316 317 317 318 318 319 319 319 316 318 318 318 317 317 316 316 315 312 312 311 310 309 308 307 307 305 304 303 302 301 301 301 299 299 299 300 299 299 300 299 299 296 296 297 296 298 297 298 297 298 298 298 298 298 298 298 298 299 299 299 299 299 299 299 298 298 298 298 299 300 304 307 309 310 311 313
309 310 310 311 310 310 310 311 313 314 316 316 317 318 318 318 317 317 317 316 316 315 315 315 314 313 311 310 309 308 308 307 306 305 304 303 302 302 300 300 300 299 299 299 298 299 300 300 298 298 298 296 296 297 297 297 297 297 297 297 298 297 298 298 298 298 299 298 298 298 297 297 296 297 297 297 297 296 296 299 302 304 306 308 311
310 309 310 310 310 310 310 310 312 314 315 316 316 316 317 317 316 315 314 314 314 314 314 313 312 312 310 309 308 307 306 306 305 304 303 303 302 301 300 299 298 299 298 298 298 299 299 299 296 297 298 296 295 296 295 297 297 297 296 296 296 297 297 297 297 296 297 297 297 297 296 296 297 297 296 297 297 296 296 296 297 299 300 304 309
308 308 309 309 310 310 310 310 310 312 314 315 316 316 315 315 315 314 312 312 312 312 312 311 311 310 309 309 307 306 305 305 304 303 302 302 301 301 299 299 298 298 298 297 298 298 298 298 297 295 296 297 296 296 296 297 297 296 295 295 296 296 297 296 296 297 296 297 296 296 297 295 296 296 296 296 295 296 296 297 297 298 298 299 305
307 306 306 308 309 309 309 309 309 310 312 313 314 313 313 312 311 311 310 309 310 309 310 309 309 308 308 307 307 305 304 303 303 302 302 301 300 300 298 298 297 297 297 297 296 296 297 297 297 296 294 294 297 298 297 296 295 295 294 294 295 295 295 295 296 296 295 296 295 295 294 295 294 295 295 295 295 295 296 296 296 296 296 297 299
305 305 304 306 307 307 308 307 308 308 309 310 311 311 311 310 310 309 308 309 308 308 307 308 307 307 307 306 306 305 304 303 302 302 301 300 300 300 298 297 297 297 296 297 297 297 297 297 296 295 294 293 294 296 297 297 294 292 293 293 293 294 293 293 293 294 294 294 294 294 293 293 294 294 294 294 295 295 295 295 295 296 296 298 299
305 305 304 305 306 306 307 307 307 306 307 309 310 310 311 311 309 309 308 308 307 305 305 306 305 305 305 305 305 305 304 302 301 301 300 300 299 298 297 296 296 296 297 298 298 297 297 297 296 294 296 293 292 295 297 295 293 292 290 290 291 291 292 292 292 292 294 294 294 294 294 293 293 293 293 293 294 294 294 295 295 295 296 296 297
304 304 304 303 303 305 306 306 307 306 306 307 309 309 311 311 309 309 308 307 307 307 306 305 304 303 303 303 303 303 303 302 301 300 300 300 299 298 297 296 296 296 296 297 297 296 296 296 295 294 293 295 294 295 296 298 293 295 294 292 289 288 290 290 292 291 292 293 293 293 293 293 292 293 293 293 293 293 294 294 295 295 295 296 296
301 301 301 301 301 302 304 305 306 306 306 306 307 309 310 310 309 307 307 307 305 305 304 303 302 302 301 302 302 302 302 302 301 300 300 300 299 298 297 296 295 296 296 295 295 295 295 295 295 295 294 292 293 291 296 296 297 295 290 293 292 291 288 288 289 290 291 292 292 292 292 292 292 293 293 292 292 293 293 294 294 294 295 295 296
298 298 298 299 299 301 302 304 304 305 305 305 306 307 307 306 306 305 305 304 303 302 302 301 301 301 301 300 300 301 301 301 301 300 299 299 299 298 297 296 295 296 296 295 295 295 295 295 295 295 294 292 292 291 292 296 295 299 295 291 289 289 292 293 291 289 290 290 291 292 292 292 292 292 292 292 292 293 293 293 294 294 294 295 296
296 297 298 299 300 300 301 303 304 304 304 304 305 305 305 304 303 302 301 301 300 300 299 299 300 299 299 300 300 300 300 300 300 300 299 299 299 298 298 297 296 295 295 295 295 296 295 295 295 296 294 295 294 293 291 293 295 297 295 297 299 294 294 293 291 287 289 291 292 291 291 291 291 291 291 291 292 292 292 292 293 293 294 295 295
295 297 298 298 299 300 301 302 302 303 303 303 304 304 304 303 303 302 302 301 300 301 301 301 300 300 300 299 299 299 299 299 299 299 299 299 299 299 298 297 296 295 295 295 295 295 295 295 295 295 295 296 296 292 292 291 292 292 294 295 296 291 299 293 290 292 286 289 290 290 290 291 291 291 291 291 291 291 291 292 293 293 294 294 294
295 296 297 298 298 299 300 300 301 301 302 303 303 303 302 303 302 302 302 301 301 301 301 300 301 300 299 298 298 298 298 298 298 299 299 298 298 298 298 298 296 296 294 294 294 295 295 296 295 295 296 295 297 294 293 293 289 290 293 292 291 293 296 296 299 295 294 288 287 290 291 290 291 291 291 290 290 291 291 292 292 292 293 294 294
294 294 295 296 298 298 298 300 300 300 301 301 301 302 302 302 302 302 301 302 302 302 302 301 300 299 298 298 298 297 297 298 298 298 298 298 297 298 298 297 296 295 294 294 294 295 295 294 294 293 294 294 295 296 296 293 292 294 291 291 293 293 294 295 295 297 294 292 291 288 287 289 290 290 289 290 290 291 291 291 292 292 292 293 293
294 295 295 296 296 296 297 297 297 299 299 300 300 301 302 301 301 301 301 301 301 301 301 300 299 299 298 298 297 297 296 296 297 297 297 298 298 297 297 297 296 296 293 294 294 295 295 294 294 293 294 294 294 295 296 295 294 296 293 293 291 291 292 291 292 293 292 296 292 289 289 286 285 288 289 289 289 290 291 291 291 292 292 292 292
294 294 294 295 295 294 295 295 296 296 298 299 299 300 301 301 300 301 300 300 301 300 299 299 299 298 297 297 297 296 296 296 296 296 297 297 297 297 297 296 296 295 294 294 294 294 294 294 294 294 294 294 293 293 295 296 295 296 294 293 292 292 292 291 291 292 292 290 291 292 291 289 288 287 287 289 289 290 290 291 291 291 292 291 291
Wind_Speed
10 9 11 15 14 15 16 17 15 15 14 14 14 13 12 11 11 10 10 10 9 9 8 8 8 8 8 8 8 7 7 7 7 7 6 6 5 5 5 5 5 5 5 6 7 7 8 8 9 10 11 11 11 11 11 12 12 11 11 10 10 10 10 11 10 10 10 10 11 10 11 7 8 9 9 9 10 8 7 5 5 6 6 8 10
15 12 11 15 14 16 16 17 17 16 16 15 14 13 12 12 11 10 10 10 10 9 8 8 8 7 8 7 8 7 7 7 7 7 7 6 5 4 3 4 4 4 5 5 6 7 7 8 8 10 10 11 11 11 11 11 10 10 10 10 9 9 9 9 9 9 9 9 8 9 10 11 8 9 9 9 9 8 6 5 7 4 6 9 10
13 12 11 15 14 14 16 17 17 17 16 16 14 13 12 11 10 10 10 9 9 9 9 8 8 8 8 7 7 8 7 7 7 7 6 6 5 4 3 3 3 4 5 5 7 8 8 9 9 10 10 10 10 9 9 9 9 9 9 9 9 8 8 8 8 8 8 7 6 3 6 10 8 8 8 8 9 8 6 7 8 7 7 9 9
13 11 11 13 14 13 16 17 17 16 16 15 14 13 12 12 11 10 9 10 10 10 9 9 8 8 8 7 7 7 8 7 7 7 6 6 5 5 4 4 4 4 5 6 7 8 9 9 8 9 10 11 10 10 9 9 9 9 9 9 8 8 8 8 7 7 6 6 4 2 4 6 7 6 8 8 8 8 7 7 8 10 10 10 11
13 10 11 13 14 13 16 16 17 16 15 15 14 13 13 13 11 10 10 10 10 10 9 9 9 9 8 8 8 7 7 7 7 7 6 6 6 6 5 5 5 5 6 6 7 8 9 9 8 8 11 11 11 10 9 9 9 9 9 8 8 7 7 7 6 6 6 4 4 3 5 5 5 6 5 7 7 5 4 7 8 9 8 10 11
11 10 11 12 15 16 13 16 17 17 16 15 14 14 13 13 12 11 11 11 10 10 10 10 9 9 9 8 8 8 8 8 8 8 8 8 7 7 6 5 6 6 6 7 7 8 7 7 7 6 10 10 10 10 9 9 8 8 8 8 7 7 7 6 5 5 3 2 3 2 4 4 5 4 3 4 6 3 1 7 8 8 8 7 9
10 9 11 13 13 15 13 15 17 17 17 16 14 14 14 13 12 12 12 11 10 10 10 10 10 10 9 9 8 8 9 9 8 8 8 7 7 6 6 6 6 7 7 8 7 7 6 6 6 6 10 10 10 9 9 8 8 7 7 7 7 7 7 6 6 5 4 4 2 2 3 3 4 4 5 5 5 5 6 6 6 8 8 8 7
9 8 11 12 13 13 13 14 16 17 16 16 15 14 14 14 13 13 12 12 11 11 11 11 10 11 10 9 10 10 9 9 8 8 7 7 6 6 6 7 8 8 8 8 8 8 7 5 5 7 9 10 9 9 8 8 7 7 7 7 7 7 7 6 6 5 6 1 2 2 2 2 2 3 7 6 4 3 4 4 6 7 8 7 4
10 10 10 11 12 12 12 12 13 16 17 15 15 14 15 14 13 13 13 12 12 12 12 12 11 11 11 11 11 10 10 9 8 7 5 5 6 5 6 7 7 7 7 7 7 8 6 4 5 8 9 9 9 8 8 8 8 8 7 7 7 7 6 6 5 5 0 3 2 3 2 2 2 3 7 6 6 5 5 2 9 8 7 5 3
10 10 10 12 12 10 12 11 12 13 16 16 14 13 15 14 14 14 13 13 12 12 12 11 11 11 11 12 12 11 9 8 7 7 5 4 4 3 5 4 5 5 6 5 5 5 5 4 4 8 9 9 9 8 8 8 8 8 8 8 8 8 7 6 3 4 3 3 3 4 4 7 1 1 7 7 8 7 5 5 8 8 5 1 7
11 11 11 12 13 11 12 13 12 12 14 13 13 13 15 14 13 14 14 14 12 12 10 11 11 11 11 12 12 11 10 9 8 6 6 4 3 2 5 5 5 3 2 3 4 5 5 5 5 8 9 9 9 8 8 8 8 8 8 8 8 7 7 6 4 3 3 3 3 3 3 6 1 2 8 7 9 9 6 3 1 2 2 4 6
12 11 11 11 8 11 11 12 12 13 13 13 13 15 15 14 14 14 14 14 13 12 11 12 12 13 13 13 12 11 10 9 8 7 6 5 6 4 5 4 3 4 3 4 5 5 6 5 6 9 9 9 9 9 9 8 8 8 8 8 7 7 6 5 3 3 3 4 4 4 4 3 1 7 4 6 8 8 9 7 6 4 4 4 5
12 12 12 12 12 9 11 12 11 13 13 12 15 15 14 14 14 14 14 14 14 12 13 13 13 14 14 13 11 10 10 9 8 6 5 7 6 5 7 4 6 5 5 5 6 6 6 7 7 8 9 9 9 9 9 8 8 8 8 8 7 6 6 5 3 3 3 4 3 4 4 4 4 5 4 5 7 6 7 8 8 7 8 8 10
12 12 12 13 13 11 10 11 10 13 12 12 14 14 15 14 14 13 13 13 13 14 14 15 14 14 12 12 12 11 10 10 9 8 6 6 7 6 7 7 7 6 6 6 6 6 7 7 8 8 9 9 9 9 9 9 9 8 8 8 7 6 3 4 4 4 4 4 4 5 4 4 5 6 3 4 6 6 6 7 7 7 9 9 8
10 13 12 13 12 12 9 10 9 12 11 12 13 13 14 14 14 13 14 14 14 13 14 13 14 13 12 10 10 10 9 8 9 7 8 7 8 8 8 9 8 7 7 7 7 7 8 8 8 9 9 9 9 9 9 9 9 9 9 9 8 7 6 3 2 3 3 3 3 4 4 5 9 5 3 4 5 5 5 6 6 6 7 8 6
9 12 13 13 13 14 11 8 9 10 11 11 12 11 11 12 11 12 13 13 12 12 12 12 11 11 10 10 12 10 11 10 9 8 9 10 10 10 10 9 8 8 8 8 8 8 8 8 9 9 9 9 9 9 9 10 10 10 10 9 9 8 8 5 3 3 3 3 3 3 4 5 10 6 4 4 4 4 4 4 5 4 6 7 7
9 12 14 14 12 14 14 13 10 9 9 10 11 11 11 10 11 10 11 10 10 10 11 9 9 10 8 10 9 9 7 8 9 10 10 9 9 9 9 9 10 10 9 9 9 9 9 9 9 9 9 9 10 10 10 10 10 10 10 9 9 8 8 6 3 3 4 4 3 3 4 5 7 5 5 5 3 4 4 4 4 3 4 6 7
10 13 13 13 11 13 15 15 14 10 12 8 10 11 11 11 11 10 10 9 9 9 9 9 9 10 9 9 9 8 10 9 10 10 10 10 9 9 10 10 11 10 10 10 10 10 10 10 10 10 10 10 10 10 10 10 10 10 9 9 8 7 6 5 4 4 4 3 3 3 4 8 7 4 5 4 4 3 3 3 3 2 3 6 7
9 12 11 12 12 11 13 14 14 15 16 14 13 11 11 11 11 10 10 9 9 9 9 9 9 9 9 7 6 9 10 9 7 8 9 7 7 8 10 11 11 11 11 11 10 10 10 10 10 10 10 10 10 10 10 10 10 10 9 8 7 6 4 4 4 3 3 3 3 4 5 9 6 4 4 4 4 4 3 2 2 2 3 6 6
7 12 13 10 11 12 10 11 14 16 15 15 15 15 11 11 10 10 11 10 9 9 9 9 8 8 7 9 9 8 8 7 6 6 6 7 7 8 9 11 11 11 11 11 11 11 10 10 10 10 11 11 11 10 10 10 9 9 8 6 4 2 3 4 4 3 3 4 3 4 8 8 7 5 4 4 3 3 2 1 2 2 5 6 6
7 10 13 11 11 12 13 10 14 17 16 15 14 14 13 11 8 10 11 11 10 10 10 9 9 8 8 9 9 7 7 7 7 8 6 8 8 6 8 11 11 11 11 11 11 11 11 11 11 11 11 11 11 11 10 9 9 8 7 5 1 3 4 3 3 3 3 3 3 5 9 7 7 5 4 4 3 3 1 1 2 2 5 5 5
10 10 12 12 11 11 13 13 10 14 17 14 12 12 11 10 13 11 10 10 9 10 9 10 10 9 9 8 8 8 7 7 8 10 8 9 7 6 7 9 12 10 11 11 11 11 11 11 10 10 10 10 8 5 6 8 8 7 6 3 2 3 4 3 3 3 3 3 3 6 8 6 6 4 4 4 4 3 3 3 3 4 5 5 5
9 10 11 14 12 11 12 14 13 12 16 16 9 8 10 10 13 14 12 11 11 11 13 11 11 10 10 9 9 9 9 9 8 8 8 9 10 7 6 8 11 9 10 10 11 11 11 10 10 9 9 7 3 3 3 3 4 3 1 2 3 3 3 3 2 2 3 3 2 8 7 5 5 4 2 3 3 3 3 3 3 4 4 5 5
11 10 10 10 12 12 14 14 14 14 13 14 11 10 12 13 12 13 13 13 13 10 15 13 10 10 10 9 9 8 8 9 7 8 6 8 6 6 5 7 8 7 9 9 10 9 11 10 10 10 6 3 2 3 3 2 2 2 2 2 3 3 2 2 2 2 2 2 3 8 7 5 4 3 2 2 2 2 3 3 3 4 4 5 5
9 8 8 10 15 14 12 13 13 12 13 11 14 14 14 12 14 13 14 14 13 13 14 10 9 10 9 9 9 7 8 8 8 8 9 8 8 9 8 10 9 10 9 8 7 7 7 6 5 5 3 3 3 3 3 3 2 2 2 2 2 2 2 2 2 2 2 2 3 7 6 5 3 2 1 2 2 3 3 3 4 4 5 5 5
5 8 11 11 14 14 14 12 12 13 13 13 15 12 13 13 14 14 14 13 14 13 11 9 8 9 9 9 8 8 9 8 9 10 10 9 9 9 9 8 9 7 7 6 5 6 5 5 5 4 3 3 3 2 2 2 2 2 2 2 2 2 2 1 1 1 1 1 3 7 6 5 3 2 0 2 3 4 4 5 5 5 5 5 5
9 11 9 10 12 15 15 12 12 13 14 14 11 11 11 12 11 13 14 14 13 10 9 9 9 10 10 9 9 9 10 9 9 10 10 9 9 9 8 7 8 7 7 6 5 5 5 5 5 4 3 4 3 3 3 2 2 3 3 2 2 1 1 1 1 1 1 1 3 6 6 4 4 2 0 3 4 4 5 5 5 6 6 6 5
8 10 9 10 11 15 15 14 13 13 12 13 13 11 11 12 12 11 12 12 11 11 10 10 9 9 9 10 10 10 10 10 10 10 10 9 9 9 8 7 7 7 6 5 6 5 5 4 4 5 5 4 4 3 3 3 3 2 3 2 2 1 1 1 2 1 1 1 2 4 7 4 3 3 1 3 4 4 5 5 6 6 7 6 6
12 11 9 10 10 10 14 16 15 16 12 13 13 12 11 12 11 11 13 12 11 11 11 9 9 9 9 10 11 11 10 10 10 10 9 10 9 8 8 8 7 6 6 5 6 5 5 5 5 5 5 4 4 3 3 3 2 2 2 2 1 2 2 1 2 1 1 1 1 4 8 5 3 2 2 2 3 4 5 5 6 6 6 6 7
15 11 10 10 10 12 14 17 16 13 13 12 12 12 12 12 12 13 12 11 12 11 11 9 9 9 9 10 11 11 11 11 11 10 10 10 8 8 8 8 8 7 6 6 6 5 6 5 5 5 5 5 4 4 3 3 2 2 1 2 1 1 1 1 1 1 1 1 2 4 6 8 5 4 4 4 3 3 4 4 4 5 6 6 6
11 13 12 11 10 12 13 15 15 14 13 13 12 13 12 13 12 11 12 11 12 10 9 10 9 9 10 11 11 11 10 11 10 11 10 9 8 8 8 7 8 7 7 6 5 5 5 5 6 6 5 5 4 4 3 4 3 2 2 1 1 1 1 1 1 1 1 2 2 3 4 7 9 7 4 5 5 5 5 5 5 4 5 5 5
12 14 12 10 11 15 14 15 16 15 14 15 13 14 14 13 13 11 12 12 12 11 11 10 10 10 10 10 11 11 10 10 10 10 10 10 10 10 9 8 8 7 7 6 6 5 5 4 5 5 5 5 5 4 3 4 3 3 2 2 2 2 2 2 2 2 2 2 2 3 3 4 8 13 11 8 8 7 8 7 6 5 4 5 5
10 13 11 11 14 14 14 16 16 16 17 17 15 14 13 12 12 13 12 11 11 11 11 11 10 10 9 11 11 12 11 10 10 10 10 9 9 10 9 8 8 8 7 7 7 6 5 5 5 5 5 5 5 4 3 3 3 3 2 2 2 2 2 2 2 3 3 2 2 3 4 4 5 9 14 15 11 10 9 8 7 5 5 5 5
9 9 10 13 12 9 10 10 15 17 18 16 14 13 14 13 12 12 12 11 11 11 11 10 10 9 10 11 11 11 11 10 10 10 10 9 9 9 9 9 7 8 7 7 7 7 6 6 6 6 5 6 5 5 5 4 4 3 3 3 2 3 3 3 3 3 3 3 3 3 3 4 3 4 5 11 14 13 10 9 8 7 7 7 7
10 10 13 15 13 11 10 10 13 17 16 17 17 16 14 13 13 12 12 12 11 11 11 10 9 9 10 10 12 11 12 11 10 10 10 9 9 9 9 8 7 8 7 7 8 7 7 7 7 7 6 5 5 5 5 4 5 4 3 3 3 3 3 3 3 3 3 3 3 3 3 4 4 4 3 4 8 13 12 11 10 10 9 8 7
13 13 12 11 14 14 13 14 14 18 17 18 17 15 15 13 12 12 11 12 11 11 11 10 10 10 10 10 12 11 11 11 10 10 10 9 9 9 9 7 8 7 7 7 7 8 7 7 6 7 8 6 6 5 4 4 4 4 3 3 3 2 3 3 3 3 3 3 3 3 3 4 3 3 3 4 5 7 11 11 12 12 11 9 7
13 12 12 11 13 14 13 16 17 18 18 17 15 14 13 12 12 12 12 11 12 11 10 10 10 10 10 10 11 11 12 11 11 11 10 10 9 8 8 8 8 8 7 8 7 7 7 7 6 5 6 7 6 6 5 4 4 4 3 3 3 3 3 3 3 3 2 3 4 4 4 4 4 3 3 3 4 4 8 10 11 13 13 10 8
11 12 12 12 13 13 13 14 14 14 13 13 14 12 11 11 10 9 10 10 12 10 9 9 10 10 10 10 11 12 12 12 12 11 10 9 9 8 7 9 9 8 7 7 7 6 6 7 8 5 5 7 6 7 6 4 4 4 4 3 3 2 3 3 3 3 3 3 3 4 4 3 3 3 3 3 3 3 4 6 8 11 14 11 10
8 10 10 11 9 9 9 10 11 11 12 11 11 11 10 10 8 9 9 10 9 9 9 10 10 10 10 11 11 11 11 12 12 12 11 10 9 9 8 10 9 8 8 8 7 7 6 6 7 7 4 4 6 6 6 6 5 4 4 4 3 3 2 3 3 2 3 3 3 3 3 3 3 3 3 3 3 3 3 2 3 4 6 12 11
7 7 7 7 8 8 7 7 9 9 9 9 8 9 9 10 10 9 9 11 10 10 10 10 10 10 10 11 11 12 11 12 13 12 12 11 11 10 10 10 9 8 9 9 8 8 10 9 8 9 8 3 1 4 7 7 7 6 5 4 3 3 4 3 2 3 2 3 3 2 3 3 3 3 3 3 3 3 3 3 3 4 5 8 11
6 6 6 6 7 8 6 8 6 9 8 9 9 9 10 9 9 11 12 9 10 10 10 10 10 10 10 11 11 11 11 12 12 13 13 12 11 9 10 10 9 9 9 10 10 10 9 9 8 7 10 8 5 5 7 8 9 6 5 4 3 3 4 2 3 2 3 3 2 3 3 3 3 3 3 3 3 3 3 3 3 3 3 4 6
11 9 6 6 5 6 8 7 6 8 9 9 8 9 9 9 9 10 9 9 9 10 11 10 10 9 9 11 10 11 11 12 11 12 11 12 12 10 10 10 10 10 9 8 8 8 9 8 9 8 6 9 7 8 8 10 6 8 8 5 3 3 2 2 2 3 3 2 2 3 3 3 3 3 3 3 3 3 3 3 3 3 3 4 4
10 9 9 8 7 6 6 7 6 8 9 9 8 9 8 8 8 7 8 7 6 7 8 7 7 8 8 10 10 10 11 11 11 11 11 11 10 10 11 11 11 10 9 9 9 10 10 11 12 10 9 6 5 7 9 9 7 7 7 7 5 5 4 3 3 4 4 3 3 3 3 3 3 2 3 3 3 3 3 3 3 3 4 4 4
13 13 13 11 7 6 6 5 6 6 7 8 8 7 6 5 5 1 3 5 4 5 5 4 6 8 9 9 9 11 12 11 12 13 10 11 12 11 10 10 12 11 11 11 11 11 10 10 11 10 11 10 7 8 8 6 4 12 8 5 7 5 5 8 8 6 5 4 4 4 3 2 3 2 2 3 3 3 4 4 4 4 4 4 4
16 15 14 12 8 10 7 5 5 5 6 6 8 7 5 4 4 0 1 2 3 3 5 8 7 7 7 8 10 10 11 11 11 13 11 12 11 11 11 11 12 12 11 10 11 12 12 11 12 11 13 12 10 8 9 7 8 5 3 6 3 3 6 5 10 6 6 5 5 3 3 2 2 2 2 3 3 4 4 4 4 4 4 4 4
17 16 14 14 13 10 8 6 3 3 4 4 6 7 6 6 6 6 7 6 7 7 8 7 6 6 7 4 6 8 8 9 9 11 11 11 12 12 12 12 12 11 11 10 9 9 10 11 12 11 12 11 10 10 10 7 7 6 6 5 2 2 5 7 9 5 7 6 4 4 4 3 1 2 2 3 3 3 4 4 4 4 4 4 4
17 14 13 13 13 10 8 6 4 3 1 3 6 5 5 6 8 9 8 8 9 7 6 5 6 6 7 8 7 8 10 10 9 10 11 11 10 11 11 12 12 12 11 11 11 12 11 11 10 10 11 10 10 11 12 11 6 6 5 4 3 2 2 10 7 6 5 6 6 5 5 4 2 3 4 3 4 4 4 4 4 4 4 4 4
15 14 13 12 11 11 11 10 6 4 2 1 4 6 7 6 7 9 7 8 8 7 5 6 5 6 7 7 7 8 9 10 10 11 12 12 11 11 11 11 11 11 11 12 12 11 10 8 11 11 9 10 10 11 11 10 13 9 7 6 3 1 3 4 3 7 5 7 7 4 3 4 4 4 4 4 5 4 5 4 4 4 4 4 3
16 16 15 12 10 12 14 13 10 7 5 1 2 4 5 5 6 7 8 8 7 6 3 5 5 6 8 7 8 8 8 9 10 10 11 13 12 12 12 12 11 11 10 10 10 12 14 14 13 11 12 10 9 10 9 10 11 9 9 6 4 4 3 1 2 2 4 6 6 8 7 5 3 4 4 4 4 4 4 4 4 4 4 4 3
15 14 13 12 14 15 18 17 15 10 8 5 2 2 4 4 5 6 8 7 6 6 5 5 5 5 7 8 8 8 8 9 9 10 10 11 11 12 11 13 13 11 10 12 11 12 12 12 14 14 13 13 10 9 10 9 11 7 10 8 8 5 4 4 4 4 1 2 3 8 9 10 9 7 5 5 5 5 5 5 5 4 4 4 4
16 17 16 16 16 18 19 19 16 11 10 9 6 4 3 4 5 6 7 8 7 6 5 6 5 6 7 8 8 8 7 8 9 9 10 11 11 11 11 12 11 11 11 12 12 13 13 12 12 13 13 15 11 10 8 7 9 7 10 9 10 11 10 9 9 7 7 6 4 5 6 8 8 8 6 5 5 5 5 5 6 5 5 5 4
Wind_Direction
199 179 165 160 179 180 185 181 182 185 180 181 183 181 180 178 176 173 167 163 163 159 157 156 153 148 143 140 136 131 128 127 129 126 125 119 116 116 118 111 116 117 113 116 109 107 107 108 103 99 92 88 86 77 72 72 71 72 72 67 60 58 54 54 49 45 38 35 39 45 49 78 109 104 98 94 87 78 70 45 335 74 62 66 58
172 179 167 166 178 181 179 183 184 184 183 182 183 184 179 177 177 173 167 167 166 163 163 163 159 158 156 155 151 148 143 140 137 136 131 130 125 132 132 127 114 120 118 118 114 107 108 108 109 102 96 90 85 78 74 74 74 73 72 72 65 61 60 59 55 48 46 40 34 41 39 40 92 103 99 92 86 82 69 26 5 32 69 74 70
158 171 168 167 177 180 175 183 185 185 184 183 182 183 181 179 178 174 172 172 171 170 171 172 170 171 169 168 165 159 153 150 145 143 141 135 138 139 139 132 116 125 132 118 111 107 105 104 95 90 93 92 85 82 76 73 73 70 72 71 68 64 62 58 53 52 49 44 35 15 79 62 54 102 97 92 86 77 55 41 30 48 67 65 72
159 170 170 163 179 180 175 181 183 183 185 184 182 182 182 183 183 180 179 180 178 178 177 180 181 180 182 174 172 167 158 152 148 145 140 134 129 125 128 131 134 136 123 117 119 116 106 96 89 92 89 84 81 77 72 67 65 64 66 67 67 65 65 61 53 53 46 42 25 340 80 97 87 61 99 89 82 72 66 62 59 62 71 69 65
166 167 172 167 181 181 179 181 180 181 182 185 182 182 184 184 186 187 185 188 187 187 186 188 189 188 186 180 174 170 159 152 140 134 130 126 117 116 114 124 124 128 131 128 126 118 109 102 98 91 87 84 81 77 71 67 61 57 54 54 57 60 63 60 55 47 43 33 3 275 95 101 100 67 93 98 83 81 83 78 70 67 69 73 70
168 168 173 172 180 180 183 182 180 180 184 186 182 184 186 186 187 189 189 192 193 193 193 193 194 192 189 181 175 167 160 151 147 136 127 128 125 117 114 116 125 132 135 131 120 108 104 99 94 94 87 84 83 77 73 71 69 63 54 49 50 54 55 54 50 40 36 354 267 100 95 101 95 98 96 112 98 95 148 83 76 70 67 67 80
173 169 178 177 183 182 187 186 181 180 184 186 184 186 186 190 190 190 193 194 196 198 197 196 196 197 190 180 173 163 158 155 147 139 133 126 122 120 115 117 130 128 125 118 110 94 96 90 93 94 88 86 83 82 81 79 74 68 61 53 48 49 50 46 39 22 342 262 79 90 100 89 101 96 82 136 104 88 84 69 75 73 71 61 38
177 177 179 180 187 172 184 188 184 182 183 185 188 189 191 192 194 197 198 198 198 200 200 198 199 196 191 178 170 162 158 153 144 142 139 129 121 119 120 115 116 119 117 117 106 96 84 101 107 91 87 86 85 85 84 83 79 76 70 66 59 50 46 43 25 16 333 15 33 45 68 92 115 113 82 106 129 80 72 70 73 82 78 66 0
180 178 182 187 191 166 181 191 187 186 188 186 189 191 194 196 196 200 203 204 204 203 202 203 201 195 193 171 169 164 159 153 147 150 131 128 135 131 124 122 121 125 127 115 110 101 105 108 114 97 94 90 88 87 85 79 74 71 68 68 63 54 47 41 32 329 116 42 51 67 32 70 145 164 91 80 84 73 50 25 136 110 80 42 22
178 181 188 192 195 161 183 189 190 188 189 192 190 192 196 197 199 202 204 206 208 207 206 204 201 192 185 172 165 163 160 150 156 144 123 124 137 167 144 151 147 126 117 135 124 130 129 124 117 101 96 95 94 91 86 81 75 73 71 65 59 51 41 31 11 39 36 50 62 70 45 320 136 231 74 75 77 67 65 28 29 25 42 54 74
179 183 188 195 199 162 189 187 190 186 190 193 195 193 197 198 200 202 204 205 205 206 203 200 198 188 174 171 168 168 166 161 152 150 145 161 211 236 278 165 189 155 177 176 152 147 135 147 145 115 110 106 101 96 90 87 84 82 79 73 65 53 41 18 324 68 49 47 49 50 65 275 144 132 91 70 71 66 78 73 53 116 105 93 84
178 180 189 197 180 166 191 189 192 188 187 192 193 197 199 199 201 201 204 204 203 200 195 194 191 179 175 170 168 172 171 173 173 165 168 172 212 226 244 170 175 182 107 179 150 161 150 157 147 120 118 114 110 105 102 99 95 92 87 81 74 65 48 30 37 58 57 58 56 21 27 23 17 96 87 74 67 73 70 87 106 118 101 90 82
179 183 189 193 188 181 193 190 196 188 189 189 191 194 199 201 202 202 202 202 199 194 192 189 181 181 181 174 179 176 173 180 154 167 178 179 192 215 214 184 186 176 173 167 169 173 167 166 140 128 122 119 115 113 110 106 103 98 91 87 82 74 60 27 74 67 63 50 51 28 27 46 60 21 96 73 67 62 60 63 71 84 93 100 100
179 186 190 190 187 175 196 195 194 188 189 186 191 195 199 200 201 200 199 197 193 187 184 184 186 188 187 192 184 189 196 187 163 170 181 184 184 211 220 190 191 165 186 177 179 174 169 157 135 128 124 120 117 114 109 104 97 91 84 77 70 62 58 75 56 70 65 58 49 28 32 44 36 360 90 82 70 61 58 63 66 77 89 93 97
185 188 188 189 187 185 193 199 192 189 187 186 192 195 199 197 196 193 193 192 190 183 188 186 188 186 191 195 213 210 196 202 181 189 198 189 193 202 210 196 196 188 183 179 176 175 157 144 136 125 118 117 113 108 103 98 91 84 77 70 59 45 360 77 59 79 69 55 54 41 48 48 9 28 59 81 75 64 62 58 56 59 76 90 85
193 189 190 191 192 188 190 195 198 191 187 187 191 193 195 190 194 197 193 191 191 184 202 193 196 197 203 197 207 199 203 196 195 193 199 196 201 200 205 200 191 184 185 187 186 168 150 141 129 124 122 115 110 103 98 91 86 80 75 65 54 41 23 343 82 66 71 49 43 40 52 49 11 28 39 73 66 71 64 56 54 49 66 75 72
194 197 194 193 193 194 195 196 193 196 194 192 193 191 197 199 197 212 210 210 200 200 203 209 204 199 200 202 216 196 187 181 195 195 200 192 198 205 206 201 192 187 186 189 186 160 149 138 131 128 122 117 113 108 103 97 90 85 79 71 58 48 29 351 75 61 55 43 28 20 46 31 10 34 40 61 63 68 49 48 44 37 58 68 71
198 198 196 198 197 199 199 200 197 197 197 192 198 198 197 201 200 208 211 220 214 210 208 210 210 204 200 194 207 192 163 175 185 191 197 195 197 201 199 197 191 189 185 181 168 154 146 140 135 130 126 120 114 111 105 100 95 89 84 77 70 56 43 23 65 69 59 37 53 30 51 7 5 34 55 46 60 52 62 41 37 31 51 66 68
202 203 203 203 200 199 203 202 202 202 204 204 203 199 202 201 203 205 208 214 214 212 209 210 203 202 191 173 139 148 155 155 162 187 190 184 192 194 196 192 188 183 176 166 158 152 146 142 138 133 126 120 115 109 105 101 99 97 94 92 89 77 61 73 66 61 56 54 41 43 32 357 13 35 49 61 50 48 28 43 30 33 57 67 68
209 209 209 210 204 201 202 203 205 206 207 209 209 208 197 204 203 202 204 210 213 210 204 192 184 175 168 134 133 134 137 140 146 179 185 176 171 192 187 191 186 178 170 163 157 150 147 145 140 133 127 120 112 105 100 99 96 93 92 90 92 140 94 83 79 71 65 56 17 50 11 2 10 30 39 47 46 50 35 24 60 54 63 69 71
211 212 213 209 206 205 203 202 206 208 209 209 212 211 200 189 200 203 205 205 205 200 190 177 166 151 146 137 136 173 173 173 165 198 167 183 166 186 185 192 182 172 166 161 156 152 148 143 138 130 122 113 101 91 87 88 85 81 77 68 2 68 63 62 62 72 66 64 44 47 0 8 13 22 45 48 41 51 49 36 72 67 67 73 70
206 210 212 211 205 208 206 206 203 205 209 209 208 205 202 189 207 203 203 199 196 191 179 186 177 174 141 145 177 186 190 185 190 200 192 189 166 182 201 191 180 165 170 160 157 153 149 143 134 124 118 113 118 122 102 79 72 74 65 359 54 62 60 53 50 64 57 68 48 18 357 9 11 21 51 60 59 65 66 73 77 77 84 79 75
209 209 209 206 206 204 206 207 206 199 207 208 204 200 199 199 208 210 210 200 196 192 200 188 187 181 171 176 186 196 191 194 195 186 205 180 185 176 188 183 174 163 165 158 158 152 148 139 132 124 119 123 130 115 114 119 105 115 142 60 63 58 60 57 64 62 56 34 61 6 359 6 6 16 55 62 72 78 77 80 80 89 92 85 87
212 205 206 199 201 204 203 205 204 200 198 209 207 204 206 208 209 210 211 205 206 195 206 196 186 174 170 178 186 178 168 188 103 111 116 169 160 169 172 163 153 156 149 156 151 148 137 125 119 123 133 157 126 120 119 123 120 87 72 74 74 75 63 69 68 71 80 47 46 356 358 2 360 11 48 94 96 100 101 103 98 106 93 94 86
212 207 202 198 200 204 201 203 201 199 198 200 208 209 208 206 210 210 210 208 207 203 202 188 180 170 169 181 179 156 170 183 170 174 187 185 180 182 180 183 182 180 165 168 164 146 150 145 140 161 153 141 136 126 132 129 124 117 90 83 93 87 90 76 78 86 86 88 49 353 358 357 356 356 43 118 122 122 126 118 121 105 106 99 94
194 211 209 204 201 203 203 200 198 200 197 199 204 198 199 204 207 207 207 206 205 200 196 185 179 174 174 176 159 162 175 182 179 182 188 185 180 179 180 181 177 165 176 165 161 163 159 157 158 163 154 144 131 127 121 127 126 117 103 85 90 103 92 83 92 87 88 88 73 350 357 354 356 345 215 136 138 135 134 139 129 121 113 100 97
214 223 213 211 203 202 202 198 198 200 201 202 200 198 197 200 201 204 202 205 204 192 189 188 184 178 174 165 172 177 182 186 182 184 186 183 183 179 178 175 172 172 181 176 167 166 169 162 162 155 143 132 120 115 107 94 96 105 102 96 83 88 93 97 91 96 94 101 80 357 355 356 352 348 176 155 148 152 146 140 130 124 121 126 115
227 227 215 212 204 201 196 197 201 200 200 200 202 201 199 200 203 197 200 199 193 192 192 190 178 176 176 175 181 182 184 187 186 186 186 185 186 181 176 172 175 176 179 177 169 174 171 164 154 140 140 136 130 130 125 115 102 97 103 100 99 101 91 91 85 82 120 129 117 29 346 10 6 358 30 153 158 154 149 134 129 130 126 117 121
239 230 218 216 213 203 198 201 202 201 199 197 205 205 201 202 200 198 200 197 198 197 193 181 177 181 180 175 180 183 187 189 188 187 184 187 183 175 174 176 176 174 176 180 175 175 173 165 156 155 150 145 142 134 125 114 114 100 102 112 118 102 109 110 103 103 116 130 113 55 353 16 20 33 56 92 139 155 147 138 132 126 119 119 122
234 233 220 215 210 199 202 205 204 201 199 196 203 204 204 202 203 201 199 193 200 198 185 181 187 182 182 183 182 187 189 189 186 185 184 185 180 174 177 178 177 174 179 183 180 179 173 166 158 152 148 144 143 130 138 123 105 103 104 117 116 121 109 108 114 126 123 107 97 103 21 6 14 57 59 87 96 108 119 130 128 121 121 117 114
233 231 225 215 203 200 203 202 202 201 197 199 199 205 203 206 203 200 200 198 197 193 186 188 188 187 186 182 183 189 189 190 187 184 183 182 178 177 185 177 180 178 182 182 175 182 171 169 164 157 153 150 142 138 145 135 129 124 118 144 131 130 116 113 114 113 118 106 106 97 79 24 13 18 70 81 99 87 103 120 111 117 131 122 110
222 230 224 213 199 204 203 200 200 197 198 202 200 204 204 204 201 199 203 200 194 195 193 191 190 189 183 178 187 189 190 191 187 181 184 181 181 182 183 180 185 177 182 177 172 176 168 146 136 130 134 142 137 143 142 148 146 140 147 151 162 147 137 131 132 123 102 102 116 117 110 87 40 22 27 73 72 78 65 67 78 76 89 114 120
225 230 227 208 210 204 203 202 198 198 200 203 202 203 203 199 198 200 201 195 195 195 196 195 193 188 181 181 188 189 190 191 186 182 183 183 181 179 181 183 183 177 176 169 162 161 152 148 136 137 139 140 142 137 135 147 144 147 160 155 151 136 133 141 132 129 123 125 116 118 115 108 94 57 39 32 45 59 63 62 69 82 88 103 104
236 223 217 220 213 203 197 198 198 201 202 204 204 202 204 201 199 199 199 191 196 197 200 198 192 189 184 185 187 189 189 193 186 183 185 185 181 182 181 182 180 170 166 161 169 171 166 157 150 153 152 159 156 152 160 162 152 152 157 158 158 144 141 138 131 127 138 131 128 120 122 122 112 98 71 49 33 34 49 62 66 71 83 75 76
230 228 216 220 210 200 189 200 195 204 200 204 204 206 203 201 197 197 196 190 195 200 200 196 192 191 185 187 189 190 190 192 185 180 185 187 183 184 185 184 171 166 168 174 174 172 167 162 159 159 156 161 159 158 172 161 155 153 150 157 143 138 137 125 126 130 133 129 128 120 118 116 117 115 114 106 61 33 34 42 50 51 54 58 67
230 226 222 215 216 208 195 203 197 202 201 202 204 204 203 202 199 197 196 188 194 198 198 196 194 191 189 190 189 189 189 189 182 181 183 189 188 187 185 175 161 167 173 173 177 173 167 160 165 161 156 162 162 163 174 155 146 136 136 134 129 140 128 125 127 132 128 137 121 115 107 96 95 85 92 100 93 59 38 41 44 48 49 48 47
234 227 220 212 215 212 204 207 207 203 206 203 204 204 204 203 200 198 198 189 196 196 198 195 192 194 192 192 185 187 187 187 184 184 188 187 188 186 180 162 165 174 174 175 182 177 163 155 157 166 164 157 166 162 165 152 129 117 111 113 119 135 130 125 138 129 129 119 113 105 95 87 79 80 82 80 94 96 58 49 50 42 38 48 51
239 229 223 217 218 210 203 205 210 206 206 205 204 203 205 204 202 200 197 198 200 199 196 194 198 195 192 194 182 185 188 187 185 184 191 186 187 185 169 163 171 177 173 175 184 171 166 164 155 158 155 157 169 169 163 135 116 116 111 112 124 124 111 119 122 136 126 113 108 100 98 94 84 69 72 74 76 83 99 76 69 57 35 37 51
255 243 229 227 226 216 207 204 205 204 203 204 202 202 204 206 205 202 199 205 203 204 201 200 200 196 198 192 180 185 187 186 183 183 189 184 185 182 167 170 176 177 172 176 171 166 164 170 155 148 147 159 170 172 154 128 114 107 107 104 99 94 93 104 132 126 111 95 89 84 85 93 84 74 77 74 70 75 72 86 90 87 61 39 53
282 276 258 238 236 235 224 215 204 204 199 199 194 198 200 203 200 198 208 209 205 203 205 208 199 201 197 190 186 187 186 184 183 184 189 185 186 182 173 169 179 177 175 177 172 177 173 163 158 152 154 145 142 138 133 130 113 103 100 94 86 82 90 101 108 109 115 119 123 127 110 105 97 85 75 72 73 65 70 71 82 90 94 68 55
289 286 281 253 240 237 228 223 206 204 202 199 200 198 202 207 211 211 215 204 205 205 206 207 205 204 195 191 188 188 187 183 185 184 191 185 186 175 168 172 178 181 184 186 179 173 169 165 152 156 158 160 170 165 153 138 131 116 108 114 104 88 84 94 124 129 138 142 140 131 120 114 106 99 87 78 77 69 75 72 73 80 86 101 83
351 347 325 309 281 247 234 224 201 201 208 208 204 203 206 205 204 213 213 211 205 204 209 204 205 199 194 190 192 189 189 187 186 188 191 187 185 174 171 171 177 184 188 183 171 160 158 159 152 153 176 172 170 175 165 155 165 161 153 148 140 135 119 128 140 148 157 142 140 128 125 109 102 108 118 110 97 95 85 85 81 80 77 82 80
353 360 359 347 326 289 258 235 212 200 205 204 203 207 206 208 206 216 207 217 218 219 218 216 200 200 194 192 193 192 194 192 187 188 192 190 184 174 176 174 180 179 179 177 173 171 176 170 170 167 163 182 169 179 183 201 175 163 152 137 165 164 170 201 178 175 168 153 142 131 123 117 106 109 120 124 127 116 99 92 95 91 89 88 85
8 7 3 358 348 328 296 259 242 217 208 201 204 207 209 203 192 178 177 224 246 210 211 204 199 197 202 196 198 198 195 194 191 192 190 186 185 180 174 177 182 183 184 180 179 182 176 175 178 177 164 163 177 188 209 211 218 149 166 216 163 191 169 209 185 174 170 165 168 150 142 136 134 143 128 123 125 123 119 113 108 108 101 94 92
4 0 356 355 346 329 314 286 256 231 220 209 198 196 172 175 190 218 7 251 319 262 235 240 230 222 217 204 209 200 199 198 194 195 196 190 187 183 181 181 180 184 186 184 183 186 180 180 178 174 180 174 172 178 200 209 236 267 191 138 133 216 233 150 162 166 177 182 185 173 148 160 143 147 124 118 124 126 125 125 119 116 116 109 100
4 356 353 354 347 335 328 320 280 231 222 221 199 201 208 204 191 200 217 222 230 225 228 239 236 226 222 236 214 208 207 206 203 197 200 197 194 190 185 180 182 181 189 189 181 175 181 180 184 182 183 190 173 166 184 208 232 244 266 316 345 233 177 142 163 181 175 205 169 189 179 182 179 157 142 129 140 135 129 129 129 127 126 121 111
358 347 351 356 352 347 355 357 339 321 174 187 181 190 198 202 203 208 213 218 225 226 217 217 216 208 205 208 200 196 202 206 210 204 204 204 202 197 191 187 185 186 185 185 182 184 182 184 178 189 189 184 176 180 181 186 197 252 241 255 290 250 277 140 199 126 174 186 209 197 201 194 190 177 154 143 147 148 139 136 138 137 133 136 125
359 357 359 357 356 8 18 17 10 359 15 213 188 199 206 206 207 210 215 222 223 233 201 206 208 201 199 205 204 208 207 210 208 203 204 202 202 201 198 194 191 191 185 190 186 180 176 180 186 191 185 193 188 188 183 178 184 199 192 217 239 258 273 317 212 196 177 166 184 186 201 180 195 184 160 151 154 153 147 145 147 152 148 138 134
10 9 2 351 350 23 30 26 19 8 10 22 228 205 221 226 217 221 231 236 239 243 228 198 209 192 202 205 204 205 202 208 215 212 206 204 201 202 198 198 196 194 190 195 190 181 180 178 180 187 189 191 194 202 188 183 193 185 160 201 193 192 193 258 297 277 200 189 169 180 181 166 202 182 169 157 154 154 153 150 149 160 149 141 135
14 10 7 2 12 21 28 25 18 7 5 350 312 246 226 236 233 234 239 243 241 241 237 229 216 203 208 209 202 202 200 200 207 213 213 214 209 204 202 201 199 195 190 198 188 181 185 186 186 187 187 187 194 203 201 185 195 182 180 165 177 167 183 190 201 189 64 259 207 186 175 171 184 183 172 166 160 158 159 153 160 166 159 148 138
17 17 17 16 20 25 24 24 16 5 4 359 347 322 282 261 258 255 251 252 255 252 247 237 224 213 218 214 206 206 202 204 203 207 209 212 216 213 210 206 204 198 193 198 194 191 189 187 187 190 190 189 189 191 202 195 192 175 185 182 184 179 182 186 185 190 188 174 171 161 163 184 186 159 181 160 162 164 162 165 169 170 161 152 143